Regional Weather Roundup
Issued by NWS

Home | Current Version | Previous Version | Text Only | Print | Product List | Glossary On
Versions: 1 2 3 4 5 6 7 8 9 10 11 12 13 14 15 16 17 18 19 20 21 22 23 24 25 26 27 28 29 30 31 32 33 34 35 36 37 38 39 40 41 42 43 44 45 46 47 48 49 50
000
ASUS43 KOAX 212202
RWRNE

WEATHER ROUNDUP FOR NEBRASKA
NATIONAL WEATHER SERVICE OMAHA NE
500 PM CDT THU SEP 21 2017

NOTES: SATELLITE DATA IS BEING USED TO AUGMENT CLOUD COVER ABOVE
       12000 FEET.
       "FAIR" INDICATES FEW OR NO CLOUDS BELOW 12,000 FEET WITH NO
       SIGNIFICANT WEATHER AND/OR OBSTRUCTIONS TO VISIBILITY.


NEZ001>004-019>022-054>056-212300-
NEBRASKA PANHANDLE

CITY           SKY/WX    TMP DP  RH WIND       PRES   REMARKS
SCOTTSBLUFF    SUNNY     88  39  17 E20       29.64F
ALLIANCE       SUNNY     85  41  21 SE13      29.67F
CHADRON        SUNNY     92  31  11 SE9       29.60F
GORDON         FAIR      87  43  21 SE7       29.66S
KIMBALL        SUNNY     87  32  13 SE8G20    29.71F
SIDNEY         SUNNY     90  31  12 SE8       29.68F
$$

NEZ057>060-069>072-079>082-212300-
SOUTHWEST NEBRASKA

CITY           SKY/WX    TMP DP  RH WIND       PRES   REMARKS
NORTH PLATTE   SUNNY     95  45  17 S15G23    29.62F HX  91
IMPERIAL       SUNNY     97  21   6 S21G31    29.61F HX  90
LEXINGTON      SUNNY     98  44  15 S18G26    29.64F HX  93
MCCOOK         LGT RAIN  99  37  11 S28G37    29.62F HX  94
OGALLALA       SUNNY     93  39  15 SE13G20   29.63F
$$

NEZ005>010-023>029-035>040-094-212300-
NORTH CENTRAL NEBRASKA

CITY           SKY/WX    TMP DP  RH WIND       PRES   REMARKS
VALENTINE      SUNNY     90  49  24 S16       29.63F
AINSWORTH      SUNNY     89  55  31 S14       29.65F
BROKEN BOW     SUNNY     93  54  26 S18G26    29.65F HX  91
O`NEILL        SUNNY     90  60  36 S21G30    29.66F
ORD            SUNNY     91  59  33 S18G31    29.64F HX  90
THEDFORD       SUNNY     91  49  23 S13       29.67S
$$

NEZ041-046>049-061>064-073>077-083>087-212300-
SOUTH CENTRAL NEBRASKA

CITY           SKY/WX    TMP DP  RH WIND       PRES   REMARKS
GRAND ISLAND   SUNNY     92  68  45 S22G30    29.68F HX  96
AURORA         SUNNY     91  65  41 S23G30    29.69F HX  93
HASTINGS       SUNNY     95  61  32 S18G26    29.68F HX  95
HEBRON         SUNNY     96  65  36 S15G26    29.70F HX  98
HOLDREGE       SUNNY     96  39  13 S23G35    29.65F HX  92
KEARNEY        SUNNY     96  57  27 S25G31    29.65F HX  95
YORK           SUNNY     91  68  46 SE18G32   29.70F HX  95
$$

NEZ011>018-030>034-042>045-212300-
NORTHEAST NEBRASKA

CITY           SKY/WX    TMP DP  RH WIND       PRES   REMARKS
NORFOLK        SUNNY     90  69  50 SE20G30   29.67F HX  94
ALBION         SUNNY     90  71  53 S22G32    29.68S HX  95
BLAIR          SUNNY     91  71  51 S22G30    29.73F HX  97
COLUMBUS       SUNNY     92  71  50 SE20G28   29.69F HX  98
FREMONT        SUNNY     91  69  49 SE14G28   29.72S HX  95
TEKAMAH        SUNNY     91  71  51 S17G26    29.70F HX  97
WAYNE          SUNNY     88  71  58 S22G30    29.69F HX  94
$$

NEZ050>053-065>068-078-088>093-212300-
SOUTHEAST NEBRASKA

CITY           SKY/WX    TMP DP  RH WIND       PRES   REMARKS
LINCOLN        SUNNY     92  70  48 S23G37    29.71F HX  97
OMAHA EPPLEY   MOSUNNY   93  71  48 S23G33    29.72F HX 100
BEATRICE       SUNNY     93  72  50 S22G32    29.73F HX 100
FALLS CITY     MOSUNNY   90  72  55 S17G29    29.78S HX  97
NEBRASKA CITY  MOSUNNY   90  73  57 S18G30    29.76F HX  98
PLATTSMOUTH    MOSUNNY   92  73  53 S17G24    29.75S HX  99
$$

NEZ044-045-051>053-067-212300-
OMAHA AREA

CITY           SKY/WX    TMP DP  RH WIND       PRES   REMARKS
OMAHA EPPLEY   MOSUNNY   93  71  48 S23G33    29.72F HX 100
BLAIR          SUNNY     91  71  51 S22G30    29.73F HX  97
FREMONT        SUNNY     91  69  49 SE14G28   29.72S HX  95
MILLARD        SUNNY     93  73  51 SE22      29.72F HX 102
OFFUTT AFB     SUNNY     92  71  50 S26G32    29.72F HX  98
PLATTSMOUTH    MOSUNNY   92  73  53 S17G24    29.75S HX  99
WAHOO          FAIR      92  69  45 S22G30    29.71F HX  97
$$




USA.gov is the U.S. government's official web portal to all federal, state and local government web resources and services.